#timestamp,LO_Frequency,Hit,Temp,Hum 
1478415615.3,286046995.6,N,0.0,0.0
1478415635.1,286046998.5,N,0.0,0.0
1478415655.9,286046996.5,N,0.0,0.0
1478415675.7,286046998.2,N,0.0,0.0
1478415695.5,286046998.6,N,0.0,0.0
1478415715.4,286047000.7,N,0.0,0.0
1478415735.2,286047001.0,N,0.0,0.0
1478415755.0,286046998.3,N,0.0,0.0
1478415755.9,286046998.3,N,0.0,0.0
1478415775.8,286046998.1,N,0.0,0.0
1478415795.6,286047000.3,N,0.0,0.0
1478415815.4,286047000.3,N,0.0,0.0
1478415835.2,286047000.7,N,0.0,0.0
1478415855.1,286047002.6,N,0.0,0.0
1478415856.0,286047002.6,N,0.0,0.0
1478415875.8,286047002.2,N,0.0,0.0
1478415895.6,286047002.6,N,0.0,0.0
1478415915.5,286047002.2,N,0.0,0.0
1478415935.3,286047003.8,N,0.0,0.0
1478415955.1,286047000.6,N,0.0,0.0
1478415975.9,286047002.5,N,0.0,0.0
1478415995.7,286047002.7,N,0.0,0.0
1478416015.5,286047004.0,N,0.0,0.0
1478416035.4,286047003.7,N,0.0,0.0
1478416055.2,286047001.4,N,0.0,0.0
1478416075.0,286047004.4,N,0.0,0.0
1478416075.9,286047004.4,N,0.0,0.0
1478416095.8,286047001.9,N,0.0,0.0
1478416115.6,286047001.7,N,0.0,0.0
1478416135.4,286047001.3,N,0.0,0.0
1478416155.3,286047004.3,N,0.0,0.0
1478416175.1,286047003.2,N,0.0,0.0
1478416176.0,286047003.2,N,0.0,0.0
1478416195.8,286047005.5,N,0.0,0.0
1478416215.7,286047005.8,N,0.0,0.0
1478416235.5,286047006.0,N,0.0,0.0
1478416255.3,286047003.3,N,0.0,0.0
1478416275.1,286047005.2,N,0.0,0.0
1478416295.9,286047004.6,N,0.0,0.0
1478416315.7,286047009.1,N,0.0,0.0
1478416335.5,286047007.4,N,0.0,0.0
1478416355.4,286047006.3,N,0.0,0.0
1478416375.2,286047005.6,N,0.0,0.0
1478416395.0,286047005.6,N,0.0,0.0
1478416395.9,286047005.6,N,0.0,0.0
1478416415.8,286047005.5,N,0.0,0.0
1478416435.6,286047006.2,N,0.0,0.0
1478416455.4,286047007.0,N,0.0,0.0
1478416475.3,286047007.6,N,0.0,0.0
1478416495.1,286047004.3,N,0.0,0.0
1478416515.8,286047005.0,N,0.0,0.0
1478416535.7,286047005.3,N,0.0,0.0
1478416555.5,286047007.0,N,0.0,0.0
1478416575.3,286047005.8,N,0.0,0.0
1478416595.2,286047005.0,N,0.0,0.0
1478416615.9,286047005.9,N,0.0,0.0
1478416635.7,286047005.2,N,0.0,0.0
1478416655.6,286047002.8,N,0.0,0.0
1478416675.4,286047004.5,N,0.0,0.0
1478416695.2,286047010.6,N,0.0,0.0
1478416715.0,286047007.8,N,0.0,0.0
1478416715.9,286047007.8,N,0.0,0.0
1478416735.8,286047007.7,N,0.0,0.0
1478416755.6,286047011.4,N,0.0,0.0
1478416775.4,286047006.5,N,0.0,0.0
1478416795.3,286047011.8,N,0.0,0.0
1478416815.1,286047010.6,N,0.0,0.0
1478416835.8,286047007.2,N,0.0,0.0
1478416855.7,286047006.2,N,0.0,0.0
1478416875.5,286047005.1,N,0.0,0.0
1478416895.3,286047007.9,N,0.0,0.0
1478416915.2,286046999.9,N,0.0,0.0
1478416935.9,286047000.6,N,0.0,0.0
1478416955.7,286047003.6,N,0.0,0.0
1478416975.6,286047000.1,N,0.0,0.0
1478416995.4,286046998.6,N,0.0,0.0
1478417015.2,286047002.5,N,0.0,0.0
1478417035.1,286047002.8,N,0.0,0.0
1478417036.0,286047002.8,N,0.0,0.0
1478417055.8,286046997.8,N,0.0,0.0
1478417075.6,286046993.7,N,0.0,0.0
1478417095.5,286046990.5,N,0.0,0.0
1478417115.3,286046997.6,N,0.0,0.0
1478417135.1,286046996.5,N,0.0,0.0
1478417155.8,286046995.1,N,0.0,0.0
1478417175.7,286046995.9,N,0.0,0.0
1478417195.5,286046995.1,N,0.0,0.0
1478417215.3,286046997.3,N,0.0,0.0
1478417235.2,286046996.5,N,0.0,0.0
1478417255.9,286046994.2,N,0.0,0.0
1478417275.7,286046997.5,N,0.0,0.0
1478417295.6,286046997.1,N,0.0,0.0
1478417315.4,286046997.8,N,0.0,0.0
1478417335.2,286046996.4,N,0.0,0.0
1478417355.1,286046996.4,N,0.0,0.0
1478417356.0,286046996.4,N,0.0,0.0
1478417375.8,286046995.2,N,0.0,0.0
1478417395.6,286046994.9,N,0.0,0.0
1478417415.5,286046996.1,N,0.0,0.0
1478417435.3,286046995.2,N,0.0,0.0
1478417455.1,286046998.0,N,0.0,0.0
1478417475.9,286046993.8,N,0.0,0.0
1478417495.7,286046996.1,N,0.0,0.0
1478417515.5,286046994.5,N,0.0,0.0
1478417535.3,286046994.6,N,0.0,0.0
1478417555.2,286046992.6,N,0.0,0.0
1478417575.0,286046992.3,N,0.0,0.0
1478417575.9,286046992.3,N,0.0,0.0
1478417595.7,286046993.6,N,0.0,0.0
1478417615.6,286046991.7,N,0.0,0.0
1478417635.4,286046992.2,N,0.0,0.0
1478417655.2,286046992.2,N,0.0,0.0
1478417675.1,286046992.3,N,0.0,0.0
1478417676.0,286046992.3,N,0.0,0.0
1478417695.8,286046992.4,N,0.0,0.0
1478417715.6,286046994.1,N,0.0,0.0
1478417735.5,286046991.9,N,0.0,0.0
1478417755.3,286046989.9,N,0.0,0.0
1478417775.1,286046994.5,N,0.0,0.0
1478417795.9,286046991.9,N,0.0,0.0
1478417815.7,286046995.6,N,0.0,0.0
1478417835.5,286046993.3,N,0.0,0.0
1478417855.4,286046995.5,N,0.0,0.0
1478417875.2,286046999.4,N,0.0,0.0
1478417895.0,286046996.2,N,0.0,0.0
1478417895.9,286046996.2,N,0.0,0.0
1478417915.8,286046995.3,N,0.0,0.0
1478417935.6,286046997.6,N,0.0,0.0
1478417955.4,286046995.0,N,0.0,0.0
1478417975.3,286046997.1,N,0.0,0.0
1478417995.1,286046997.0,N,0.0,0.0
1478417996.0,286046997.0,N,0.0,0.0
1478418015.8,286046997.0,N,0.0,0.0
1478418035.7,286046997.2,N,0.0,0.0
1478418055.5,286046997.9,N,0.0,0.0
1478418075.3,286046997.0,N,0.0,0.0
1478418095.1,286046996.7,N,0.0,0.0
1478418115.9,286046997.2,N,0.0,0.0
1478418135.7,286046996.8,N,0.0,0.0
1478418155.5,286046996.7,N,0.0,0.0
1478418175.4,286046996.7,N,0.0,0.0
1478418195.2,286046996.5,N,0.0,0.0
1478418215.0,286046996.8,N,0.0,0.0
1478418215.9,286046996.8,N,0.0,0.0
1478418235.8,286046997.0,N,0.0,0.0
1478418255.6,286046997.2,N,0.0,0.0
1478418275.4,286046999.3,N,0.0,0.0
1478418295.3,286046997.2,N,0.0,0.0
1478418315.1,286046997.3,N,0.0,0.0
1478418335.8,286046996.7,N,0.0,0.0
1478418355.7,286046996.5,N,0.0,0.0
1478418375.5,286046997.3,N,0.0,0.0
1478418395.3,286046997.0,N,0.0,0.0
1478418415.2,286046997.1,N,0.0,0.0
1478418435.9,286046997.4,N,0.0,0.0
1478418455.7,286046997.0,N,0.0,0.0
1478418475.6,286046997.5,N,0.0,0.0
1478418495.4,286046995.0,N,0.0,0.0
1478418515.2,286047002.6,N,0.0,0.0
1478418535.0,286047000.8,N,0.0,0.0
1478418536.0,286047000.8,N,0.0,0.0
1478418555.8,286046997.2,N,0.0,0.0
1478418575.6,286046997.5,N,0.0,0.0
1478418595.4,286046996.6,N,0.0,0.0
1478418615.3,286046998.6,N,0.0,0.0
1478418635.1,286046996.0,N,0.0,0.0
1478418655.8,286046996.1,N,0.0,0.0
1478418675.7,286046996.4,N,0.0,0.0
1478418695.5,286046991.7,N,0.0,0.0
1478418715.3,286046993.8,N,0.0,0.0
1478418735.2,286046994.6,N,0.0,0.0
1478418755.9,286046994.8,N,0.0,0.0
1478418775.7,286046993.0,N,0.0,0.0
1478418795.6,286046992.1,N,0.0,0.0
1478418815.4,286046991.9,N,0.0,0.0
1478418835.2,286046992.7,N,0.0,0.0
1478418855.1,286046992.8,N,0.0,0.0
1478418856.0,286046992.8,N,0.0,0.0
1478418875.8,286046990.1,N,0.0,0.0
1478418895.6,286046992.6,N,0.0,0.0
1478418915.5,286046990.3,N,0.0,0.0
1478418935.3,286046992.8,N,0.0,0.0
1478418955.1,286046993.2,N,0.0,0.0
1478418975.8,286046990.6,N,0.0,0.0
1478418995.7,286046992.9,N,0.0,0.0
1478419015.5,286046990.1,N,0.0,0.0
1478419035.3,286046992.8,N,0.0,0.0
1478419055.2,286046990.5,N,0.0,0.0
1478419075.0,286046993.1,N,0.0,0.0
1478419075.9,286046993.1,N,0.0,0.0
1478419095.7,286046992.5,N,0.0,0.0
1478419115.6,286046991.9,N,0.0,0.0
1478419135.4,286046992.5,N,0.0,0.0
1478419155.2,286046993.2,N,0.0,0.0
1478419175.1,286046992.8,N,0.0,0.0
1478419176.0,286046992.8,N,0.0,0.0
1478419195.8,286046990.6,N,0.0,0.0
